Weather in Staryy Sibay

Russia / Republic of Bashkortostan     52°42′16″N   58°34′23″E
temp.,
°C
wind,
m/s
gust,
m/s
humid.,
%
clouds,
%
prec.,
mm/h
press.,
hPa
HPBL,
m
25 february, thu
thu2523:00−23nw2296100 0.4 102131
02:00−25wnw3386100 0.0 102425
05:00−26wnw238873 0.0 102621
08:00−27wnw23860 0.0 102919
11:00−20wnw22750 0.0 103184
14:00−16s11640 0.0 1031354
17:00−17ssw23830 0.0 103161
20:00−23sw33905 0.0 103220
26 february, fri
fri2623:00−24w228812 0.0 103220
02:00−25w22720 0.0 103120
05:00−26w22713 0.0 103120
08:00−23sw117795 0.0 102920
11:00−20s239296 0.0 1028221
14:00−19s349494 0.1 1026263
17:00−20sse359896 0.1 1025249
20:00−23sse23100100 0.1 102527
27 february, sat
sat2723:00−24sse22100100 0.1 102429
02:00−24se22100100 0.1 102223
05:00−24se12100100 0.1 102025
08:00−23ese23100100 0.1 1017103
11:00−18ese3597100 0.8 1014335
14:00−14se3694100 2.3 1011447
17:00−10ene2295100 3.4 1008193
20:00−14nne2298100 0.6 100738
28 february, sun
sun2823:00−14nne229798 0.9 100635
02:00−12nne1197100 0.3 100531
05:00−10ene0197100 0.4 100528
08:00−9sse1197100 0.3 100522
11:00−5s2396100 0.5 1005150
14:00−1ssw3596100 0.3 1005424
17:00−1wsw4788100 0.5 1005500
20:00−4wsw339592 0.1 100765
1 march, mon
mon123:00−7wsw339372 0.1 100938
02:00−6wsw2395100 0.1 101062
05:00−5sw2296100 0.6 101155
08:00−7sw2296100 0.3 101121
11:00−4w119293 0.4 1012166
14:00−3sse119075 0.1 1012331
17:00−3sse129683 0.3 1013148
20:00−7nw119797 0.4 101427